STARLINK-32474, 61260

Orbit data source: Space-Track

STARLINK-32474, 61260 is a payload satellite owned by SpaceX/Seattle (US) in LEO that was launched on Wed, 25 Sep 2024 UTC via an FALCON 9 launch vehicle from the Air Force Western Test Range (AFWTR). Payload-class satellites include a variety of spacecraft equipped with specific instruments for various scientific and technological missions. These include communications satellites like Starlink; space stations such as the ISS; scientific satellites like the Hubble; Earth observation satellites from companies like Planet Labs, Umbra, and HawkEye 360; GPS; miniature CubeSats for education and research; and military/defense satellites.

Loading next visibility...
Identifier
61260, 2024-175T
Orbit
LEO
Country
Flag of USUS
Related business
Manufacturer
SpaceX/Seattle
Mission
Operational Commercial Communications
Bus & Motor
STARLINK V2M, Unknown motor
Mass
730 kg wet, ~700 kg dry
Launch date (UTC)
2024-09-25 (2 years ago)
Launch vehicle
FALCON 9
Launch site
Air Force Western Test Range (AFWTR)
Object type
Payload
Rocket body
Debris
Shape & HBR
Box + 2 Pan, 17.7 m
Radar Cross Section
33.884 m², Large (>1 m²)

Expand to show TLE details & history
Last TLE update: 12 hours ago

TLE from 12 hours ago
0 STARLINK-32474
1 61260U 24175T   26119.75991576  .00001128  00000-0  50213-4 0  9999
2 61260  53.1612 316.7517 0001117  81.2193 278.8935 15.30194790 89276
Epoch: 2026-04-29T18:14Z
TLE epoch observation values (Epoch: 2026-04-29T18:14:16.721Z)
Latitude
0.00003°
Longitude
-174.5342°
Altitude
476.012 km
Speed
7.629 km/s
True Right ascension
21h 07m 00s
True Declination
0° 00' 00"
Sunlit
Object was in daylight at epoch
Visualization orbit readout
Latitude
Unknown
Longitude
Unknown
Altitude
Unknown
Speed
Unknown
Apparent Right ascension
Unknown
Apparent Declination
Unknown
Sunlit
N/A
Visualization observer readout
Local Sidereal Time
13:37:20
Azimuth
Unknown
Elevation
Unknown
Doppler factor
Unknown
Orbital elements
Apogee altitude
476.252 km
Perigee altitude
474.721 km
Semi-major axis
6,853.624 km
Eccentricity
0.00011
Inclination
53.1612°
RAAN
316.7517°
Arg. of periapsis
81.2193°
True anomaly
278.88085°
Mean anomaly
278.8935°
Eccentric anomaly
278.88718°
Mean motion
3.82528 °/min
Orbital period
94.11 mins
BSTAR
0.000050213
Loading maneuver chart data...
Computing Atmospheric mass density...
Loading historical data...
Loading historical data...
Loading historical data...
Loading historical data...
Loading historical data...
Loading historical data...
Loading historical data...

Documentation

Showing up to 5 results
|